Location: Lakeview
(32.8428°N, 116.9042°W)
Time: 23:37:59
(UTC+00:00)

Daily predictions for brighter satellites

Satellite Brightness Start Highest point End
(mag) Time Altitude Azimuth Time Altitude Azimuth Time Altitude Azimuth
Meteor 1-27 4.1 12:11:13 81° S 12:11:30 88° E 12:17:06 10° N
ISS -0.8 12:20:29 11° NNE 12:20:29 11° NNE 12:20:40 10° NNE
OAO 1 4.5 12:17:34 73° NNW 12:17:47 75° N 12:23:17 10° E
Cosmos 1244 Rocket 4.4 12:17:44 10° N 12:23:56 89° WSW 12:30:10 10° S
ALOS 3.5 12:19:34 10° N 12:22:03 31° N 12:22:03 31° N
Cosmos 2344 4.1 12:19:09 10° S 12:26:51 55° ESE 12:34:05 10° NE
Cosmos 1766 Rocket 3.7 12:22:42 10° N 12:27:11 73° E 12:31:36 10° SSE
NOSS 2-2 (D) 3.8 12:27:49 49° E 12:27:49 49° E 12:30:43 10° NE
Milstar 3 Cent rocket 3.5 12:26:14 21° S 12:27:29 24° SSE 12:31:31 10° ESE
Cosmos 2082 Rocket 3.5 12:33:02 25° NNW 12:33:02 25° NNW 12:36:06 10° N
CBERS 1 LM4 rocket 4.3 12:26:47 10° N 12:31:22 64° NW 12:31:22 64° NW
CZ-4B R/B 4.1 12:31:02 10° ESE 12:33:25 19° ENE 12:35:45 10° NNE
Cosmos 1461 3.4 12:34:49 27° N 12:37:01 60° ENE 12:41:09 10° SE
Meteor 2-15 Rocket 4.3 12:31:26 10° SSW 12:37:31 65° W 12:43:38 10° N
Okean 3 Rocket 3.4 12:33:12 10° N 12:37:37 80° W 12:42:02 10° S
FENGYUN 3A 3.8 12:32:52 10° N 12:38:01 47° WNW 12:38:01 47° WNW
SeaSat 1 2.3 12:34:38 10° SSE 12:39:32 76° WSW 12:42:38 23° NNW
Meteor 1-31 Rocket 2.7 12:35:54 10° NNE 12:39:48 81° E 12:41:55 26° S
DELTA 2 R/B (1) 3.8 12:39:11 45° SW 12:39:51 48° SSW 12:45:12 10° SE
Meteor 2-3 Rocket 3.7 12:35:28 10° NNW 12:41:03 58° W 12:46:40 10° S
Cosmos 292 Rocket 3.7 12:36:39 10° NNW 12:41:26 88° ENE 12:46:14 10° SSE
CZ-3 Stage 3 3.2 12:45:08 14° S 12:45:08 14° S 12:45:36 10° SSE
CZ-4B R/B 3.5 12:40:47 10° N 12:44:36 85° WNW 12:45:47 42° SSW
Cosmos 1408 Rocket 4.2 12:40:58 10° N 12:45:21 58° E 12:49:41 10° SSE
Cosmos 1553 Rocket 4.0 12:39:14 10° SSW 12:45:32 60° W 12:51:50 10° N
Cosmos 1980 Rocket 2.1 12:40:06 10° NNW 12:45:48 76° WSW 12:51:27 10° SSE
Meteor 1-4 Rocket 3.8 12:42:54 10° SSE 12:46:28 44° E 12:50:02 10° NNE
Cosmos 1417 Rocket 4.4 12:40:46 10° SSW 12:46:53 68° W 12:53:07 10° N
Meteor 2-2 Rocket 4.4 12:43:00 10° S 12:48:53 83° E 12:54:54 10° N
Cosmos 1842 Rocket 3.4 12:49:59 10° S 12:54:22 78° W 12:58:45 10° N
Cosmos 2322 Rocket 4.4 12:50:01 10° N 12:54:37 25° ENE 12:59:13 10° ESE
DELTA 4 R/B 3.1 12:55:22 20° SSW 12:55:22 20° SSW 12:56:50 10° SSE
Hubble Space Telescope 2.9 12:57:42 14° SSW 12:57:42 14° SSW 12:59:49 10° S
Cosmos 1452 Rocket 3.9 12:57:42 27° WNW 12:59:41 37° W 13:04:29 10° SSW
Cosmos 2221 2.4 12:55:34 10° SSW 12:59:54 68° W 13:04:17 10° N
Cosmos 220 Rocket 4.0 12:55:50 10° NNW 13:00:13 89° ENE 13:04:38 10° SSE
H-2A R/B 2.3 12:58:55 10° S 13:03:10 46° W 13:07:20 10° NNW
Iridium 4 Rocket 4.3 13:04:34 28° W 13:04:34 28° W 13:08:53 10° NNW
ADEOS 3.8 13:04:13 10° N 13:09:10 45° WNW 13:14:06 10° SW
Cosmos 1697 Rocket 3.9 13:10:48 20° WSW 13:10:48 20° WSW 13:13:51 10° SSW
SL-16 R/B 3.2 13:08:41 10° N 13:14:09 48° ENE 13:19:36 10° SE
NOSS 2-2 (C) 3.8 13:15:04 28° W 13:15:51 31° NW 13:19:03 10° N
Cosmos 1110 Rocket 4.0 13:12:06 10° NNW 13:17:17 60° WSW 13:22:24 10° S
SJ-12 4.4 13:15:59 10° N 13:19:45 37° WNW 13:23:29 10° SW
H-2A R/B 2.7 13:18:28 10° N 13:22:22 74° WNW 13:26:15 10° SSW
Meteosat 1 Rocket2 3.8 13:18:37 16° WSW 13:22:38 47° S 13:26:34 10° ESE
S3M 4.4 13:22:45 10° SW 13:28:18 37° W 13:33:55 10° NNW
Cosmos 1689 Rocket 3.2 13:35:08 10° SSE 13:37:51 45° ENE 13:40:34 10° N
ASTRO E2 3.3 13:34:06 11° WSW 13:37:52 49° SSE 13:41:43 10° E
COSMO-SKYMED 1 2.9 13:33:57 10° S 13:38:03 43° W 13:42:12 10° NNW
Meteor PRIRODA 4.1 13:35:35 10° N 13:39:01 37° WNW 13:42:28 10° SW
YAOGAN 6 2.5 13:36:54 10° N 13:40:24 62° WNW 13:43:51 10° SSW
X-37B 3.3 13:43:00 10° N 13:43:51 11° N 13:44:42 10° NNE
Cosmos 1745 Rocket 4.5 13:38:55 10° NNW 13:44:36 38° W 13:50:19 10° SSW
NOAA 6 4.3 13:40:12 10° NNE 13:45:22 74° ESE 13:50:29 10° S
ATLAS CENTAUR R/B 2.0 13:42:39 10° NNW 13:46:44 61° ENE 13:51:05 10° SE
H-2A R/B 4.1 13:43:49 10° NNE 13:47:41 38° E 13:51:23 10° SSE
Cosmos 1151 Rocket 4.4 13:47:00 10° SSE 13:51:09 45° E 13:55:18 10° NNE
Cosmos 1743 Rocket 4.0 13:50:36 10° NNW 13:54:47 40° W 13:58:57 10° SSW
Cosmos 1805 Rocket 3.6 13:51:28 10° N 13:55:56 83° W 14:00:22 10° S
CZ-4B R/B 4.1 13:52:50 10° NNW 13:56:30 26° WNW 14:00:13 10° SW
COSMOS 2487 3.2 13:53:20 10° S 13:56:39 57° ESE 14:00:01 10° NNE
Cosmos 1709 Rocket 4.2 13:52:03 10° NNW 13:58:13 54° W 14:04:23 10° SSW
Cosmos 1782 4.4 13:55:20 10° SSE 13:59:03 41° E 14:02:46 10° NNE
